W3EJE-13 Weather Reports


time (UTC)temp
C
wind
direction
speed
KPH
gust
KPH
rain 1hr
cm
rain 24hr
cm
rain mn
cm
humidity
%
barometer
mb
20260507211930 13 268 8.0 9.7 0.00 0.00 0.00 53 1011.0
20260507211426 13 328 16.1 20.9 0.00 0.00 0.00 53 1011.2
20260507210923 13 357 20.9 24.1 0.00 0.00 0.00 53 1011.0
20260507210420 13 332 11.3 12.9 0.00 0.00 0.00 54 1011.0
20260507205917 13 9 14.5 20.9 0.00 0.00 0.00 54 1010.8
20260507205415 13 285 6.4 8.0 0.00 0.00 0.00 53 1011.1
20260507204910 13 281 12.9 16.1 0.00 0.00 0.00 54 1010.9
20260507204407 13 333 4.8 8.0 0.00 0.00 0.00 54 1011.1
20260507203905 13 281 8.0 8.0 0.00 0.00 0.00 55 1011.3
20260507203403 14 228 6.4 8.0 0.00 0.00 0.00 52 1010.9
20260507202858 13 355 22.5 29.0 0.00 0.00 0.00 55 1010.9
20260507202355 13 288 19.3 24.1 0.00 0.00 0.00 54 1011.2
20260507201850 13 348 20.9 25.7 0.00 0.00 0.00 55 1011.0
20260507201346 13 349 9.7 11.3 0.00 0.00 0.00 53 1011.0
20260507200843 13 264 8.0 11.3 0.00 0.00 0.00 53 1011.3
20260507200339 13 2 20.9 24.1 0.00 0.00 0.00 54 1011.5
20260507195835 13 318 6.4 9.7 0.00 0.00 0.00 56 1011.5
20260507195332 13 335 19.3 25.7 0.00 0.00 0.00 58 1011.5
20260507194830 13 312 19.3 24.1 0.00 0.00 0.00 55 1011.4
20260507194326 14 4 14.5 20.9 0.00 0.00 0.00 56 1011.6
20260507193822 15 358 16.1 17.7 0.00 0.00 0.00 54 1011.4
20260507193320 13 242 8.0 11.3 0.00 0.00 0.00 54 1011.5
20260507192815 15 273 8.0 11.3 0.00 0.00 0.00 50 1011.5
20260507192313 14 21 12.9 20.9 0.00 0.00 0.00 53 1011.6
20260507191809 14 318 11.3 12.9 0.00 0.00 0.00 54 1011.3
20260507191305 13 298 17.7 22.5 0.00 0.00 0.00 53 1011.2
20260507190802 13 12 19.3 22.5 0.00 0.00 0.00 55 1011.4
20260507190301 13 268 12.9 16.1 0.00 0.00 0.00 53 1011.6
20260507185759 13 291 17.7 22.5 0.00 0.00 0.00 57 1011.5
20260507185255 13 293 11.3 12.9 0.00 0.00 0.00 57 1011.5
20260507184753 14 294 17.7 20.9 0.00 0.00 0.00 52 1011.6
20260507184251 14 317 6.4 8.0 0.00 0.00 0.00 57 1011.9
20260507183747 13 279 12.9 16.1 0.00 0.00 0.00 52 1011.8
20260507183244 13 25 17.7 22.5 0.00 0.00 0.00 50 1011.9
20260507182742 14 39 3.2 4.8 0.00 0.00 0.00 52 1011.5
20260507182236 13 261 12.9 16.1 0.00 0.00 0.00 55 1011.5
20260507181733 13 286 14.5 16.1 0.00 0.00 0.00 52 1011.7
20260507181230 13 334 9.7 11.3 0.00 0.00 0.00 54 1011.5
20260507180726 13 321 8.0 11.3 0.00 0.00 0.00 52 1011.5
20260507180223 13 326 16.1 22.5 0.00 0.00 0.00 59 1011.5
20260507175719 13 277 4.8 4.8 0.00 0.00 0.00 54 1011.7
20260507175216 13 326 11.3 20.9 0.00 0.00 0.00 54 1012.0
20260507174714 13 312 12.9 14.5 0.00 0.00 0.00 58 1011.8
20260507174211 13 282 6.4 9.7 0.00 0.00 0.00 56 1012.0
20260507173709 13 302 17.7 20.9 0.00 0.00 0.00 56 1012.3
20260507173205 13 303 11.3 12.9 0.00 0.00 0.00 55 1012.3
20260507172702 13 5 9.7 11.3 0.00 0.00 0.00 56 1012.3
20260507172159 13 25 17.7 20.9 0.00 0.00 0.00 55 1012.3
20260507171658 14 258 0.0 0.0 0.00 0.00 0.00 55 1012.3
20260507171156 13 276 4.8 4.8 0.00 0.00 0.00 52 1012.3
20260507170653 12 287 6.4 9.7 0.00 0.00 0.00 55 1012.6
20260507170150 12 312 9.7 11.3 0.00 0.00 0.00 56 1012.4
20260507165646 12 14 4.8 8.0 0.00 0.00 0.00 56 1012.7
20260507165142 12 340 12.9 14.5 0.00 0.00 0.00 55 1012.6
20260507164638 13 355 12.9 14.5 0.00 0.00 0.00 54 1012.5
20260507164136 13 215 1.6 3.2 0.00 0.00 0.00 57 1012.7
20260507163633 12 231 3.2 3.2 0.00 0.00 0.00 52 1012.7
20260507163131 12 316 12.9 14.5 0.00 0.00 0.00 57 1013.0
20260507162626 12 3 14.5 16.1 0.00 0.00 0.00 60 1012.9
20260507162123 12 260 3.2 4.8 0.00 0.00 0.00 59 1012.7
20260507161619 12 255 6.4 8.0 0.00 0.00 0.00 54 1013.2
20260507161116 12 305 8.0 9.7 0.00 0.00 0.00 55 1013.2
20260507160612 12 175 8.0 9.7 0.00 0.00 0.00 54 1012.8
20260507160109 12 303 14.5 20.9 0.00 0.00 0.00 55 1013.2
20260507155604 12 258 4.8 4.8 0.00 0.00 0.00 55 1013.2
20260507155101 12 273 4.8 4.8 0.00 0.00 0.00 58 1012.9
20260507154558 11 279 4.8 4.8 0.00 0.00 0.00 56 1013.2
20260507154055 11 25 6.4 9.7 0.00 0.00 0.00 58 1013.4
20260507153552 11 305 16.1 17.7 0.00 0.00 0.00 57 1013.4
20260507153048 11 329 9.7 11.3 0.00 0.00 0.00 55 1013.5
20260507152544 11 294 4.8 9.7 0.00 0.00 0.00 56 1013.3
20260507152040 11 5 8.0 9.7 0.00 0.00 0.00 57 1013.4
20260507151536 11 251 3.2 4.8 0.00 0.00 0.00 54 1013.5
20260507151034 11 322 8.0 9.7 0.00 0.00 0.00 56 1013.4
20260507150530 11 228 1.6 1.6 0.00 0.00 0.00 57 1013.6
20260507150022 10 343 16.1 17.7 0.00 0.00 0.00 57 1013.7
20260507145516 10 321 8.0 11.3 0.00 0.00 0.00 57 1013.5
20260507145014 11 250 6.4 8.0 0.00 0.00 0.00 58 1013.8
20260507144511 11 274 11.3 12.9 0.00 0.00 0.00 58 1013.7
20260507144008 10 286 4.8 8.0 0.00 0.00 0.00 59 1014.1
20260507143505 10 302 9.7 11.3 0.00 0.00 0.00 62 1014.2
20260507143003 10 351 9.7 9.7 0.00 0.00 0.00 59 1014.1
20260507142458 10 304 6.4 8.0 0.00 0.00 0.00 64 1014.2
20260507141955 10 338 9.7 16.1 0.00 0.00 0.00 63 1014.2
20260507141451 10 261 3.2 3.2 0.00 0.00 0.00 62 1014.3
20260507140948 10 328 9.7 11.3 0.00 0.00 0.00 64 1014.5
20260507140444 9 293 8.0 8.0 0.00 0.00 0.00 61 1014.4
20260507135942 10 27 8.0 9.7 0.00 0.00 0.00 62 1014.6
20260507135438 9 328 6.4 8.0 0.00 0.00 0.00 64 1014.7
20260507134936 9 273 6.4 8.0 0.00 0.00 0.00 64 1014.7
20260507134432 9 261 4.8 4.8 0.00 0.00 0.00 64 1014.9
20260507133928 9 286 11.3 12.9 0.00 0.00 0.00 64 1014.8
20260507133424 9 285 6.4 8.0 0.00 0.00 0.00 66 1014.9
20260507132918 8 275 6.4 8.0 0.00 0.00 0.00 67 1014.8
20260507132413 9 319 6.4 8.0 0.00 0.00 0.00 65 1014.6
20260507131910 8 48 4.8 4.8 0.00 0.00 0.00 64 1014.9
20260507131407 8 268 3.2 3.2 0.00 0.00 0.00 66 1015.0
20260507130904 8 285 6.4 8.0 0.00 0.00 0.00 65 1014.9
20260507130401 8 4 4.8 8.0 0.00 0.00 0.00 65 1014.9
20260507125900 8 314 12.9 14.5 0.00 0.00 0.00 65 1014.8
20260507125357 8 341 6.4 8.0 0.00 0.00 0.00 66 1014.8
20260507124855 8 311 8.0 11.3 0.00 0.00 0.00 66 1014.9
20260507124350 8 290 6.4 8.0 0.00 0.00 0.00 67 1015.2
20260507123849 8 277 4.8 4.8 0.00 0.00 0.00 67 1014.9
20260507123346 8 252 3.2 3.2 0.00 0.00 0.00 67 1015.0
20260507122842 7 307 11.3 14.5 0.00 0.00 0.00 67 1014.8
20260507122337 7 338 3.2 4.8 0.00 0.00 0.00 68 1014.9
20260507121834 7 252 0.0 0.0 0.00 0.00 0.00 74 1014.9
20260507121330 7 253 1.6 1.6 0.00 0.00 0.00 74 1014.8
20260507120826 7 259 1.6 1.6 0.00 0.00 0.00 75 1015.0
20260507120323 7 258 1.6 3.2 0.00 0.00 0.00 73 1014.8
20260507115819 7 248 0.0 0.0 0.00 0.00 0.00 75 1014.8
20260507115315 6 263 3.2 3.2 0.00 0.00 0.00 74 1015.0
20260507114811 6 254 0.0 0.0 0.00 0.00 0.00 75 1014.9
20260507114308 6 261 0.0 0.0 0.00 0.00 0.00 77 1015.0
20260507113806 6 256 0.0 0.0 0.00 0.00 0.00 78 1014.7
20260507113302 6 256 0.0 0.0 0.00 0.00 0.00 78 1014.6
20260507112800 6 256 0.0 0.0 0.00 0.00 0.00 78 1014.8
20260507112257 6 256 0.0 0.0 0.00 0.00 0.00 79 1014.6
20260507111755 6 255 0.0 0.0 0.00 0.00 0.00 79 1014.4
20260507111251 6 255 0.0 0.0 0.00 0.00 0.00 79 1014.3
20260507110747 6 255 0.0 0.0 0.00 0.00 0.00 79 1014.3
20260507110244 6 255 0.0 0.0 0.00 0.00 0.00 79 1014.2
20260507105741 6 255 0.0 0.0 0.00 0.00 0.00 79 1014.4
20260507105236 6 255 0.0 0.0 0.00 0.00 0.00 79 1014.4
20260507104734 6 249 0.0 0.0 0.00 0.00 0.00 79 1014.3
20260507104231 6 233 0.0 0.0 0.00 0.00 0.00 79 1014.5
20260507103727 6 239 0.0 0.0 0.00 0.00 0.00 80 1014.1
20260507103223 6 240 0.0 0.0 0.00 0.00 0.00 80 1013.8
20260507102719 6 242 0.0 0.0 0.00 0.00 0.00 80 1014.2
20260507102216 6 242 0.0 0.0 0.00 0.00 0.00 80 1014.1
20260507101712 6 242 0.0 0.0 0.00 0.00 0.00 80 1013.9
20260507101207 6 248 0.0 0.0 0.00 0.00 0.00 79 1013.8
20260507100705 6 251 0.0 0.0 0.00 0.00 0.00 80 1013.8
20260507100203 6 253 0.0 0.0 0.00 0.00 0.00 79 1013.8
20260507095701 6 253 0.0 0.0 0.00 0.00 0.00 79 1013.9
20260507095157 6 252 0.0 0.0 0.00 0.00 0.00 79 1014.2
20260507094654 6 250 0.0 0.0 0.00 0.00 0.00 80 1014.1
20260507094150 6 256 0.0 0.0 0.00 0.00 0.00 81 1014.2
20260507093648 6 248 0.0 0.0 0.00 0.00 0.00 81 1014.1
20260507093147 6 245 0.0 0.0 0.00 0.00 0.00 82 1013.8
20260507092643 6 244 0.0 0.0 0.00 0.00 0.00 81 1013.8
20260507092139 6 253 0.0 0.0 0.00 0.00 0.00 81 1013.8
20260507091636 6 253 0.0 0.0 0.00 0.00 0.00 80 1013.9
20260507091132 6 264 1.6 1.6 0.00 0.00 0.00 79 1013.8
20260507090628 6 255 0.0 0.0 0.00 0.00 0.00 79 1013.8
20260507090126 6 245 0.0 0.0 0.00 0.00 0.00 80 1013.9
20260507085622 6 253 0.0 1.6 0.00 0.00 0.00 79 1013.6
20260507085119 6 252 1.6 1.6 0.00 0.00 0.00 80 1013.9
20260507084616 6 283 3.2 4.8 0.00 0.00 0.00 81 1013.7
20260507084113 6 318 4.8 4.8 0.00 0.00 0.00 81 1013.7
20260507083609 6 249 0.0 0.0 0.00 0.00 0.00 81 1014.1
20260507083107 6 259 1.6 1.6 0.00 0.00 0.00 82 1013.7
20260507082602 6 268 1.6 3.2 0.00 0.00 0.00 82 1013.8
20260507082059 6 255 3.2 3.2 0.00 0.00 0.00 81 1014.1
20260507081555 7 257 1.6 1.6 0.00 0.00 0.00 82 1013.9
20260507081052 7 262 3.2 3.2 0.00 0.00 0.00 83 1013.8
20260507080548 7 254 0.0 1.6 0.00 0.00 0.00 84 1013.7
20260507080045 7 263 1.6 3.2 0.00 0.00 0.00 83 1013.8
20260507075540 7 253 0.0 0.0 0.00 0.00 0.00 82 1013.7
20260507075036 7 259 0.0 0.0 0.00 0.00 0.00 81 1014.2
20260507074533 7 258 0.0 1.6 0.00 0.00 0.00 80 1014.2
20260507074032 7 256 0.0 0.0 0.00 0.00 0.00 79 1014.1
20260507073527 7 262 1.6 3.2 0.00 0.00 0.00 79 1013.9
20260507073024 7 259 0.0 1.6 0.00 0.00 0.00 80 1013.9
20260507072522 7 253 0.0 1.6 0.00 0.00 0.00 82 1013.8
20260507072019 7 270 1.6 1.6 0.00 0.00 0.00 82 1014.1
20260507071516 7 264 3.2 3.2 0.00 0.00 0.00 85 1014.1
20260507071012 7 251 0.0 0.0 0.00 0.00 0.00 87 1013.8
20260507070510 7 244 0.0 0.0 0.00 0.00 0.00 88 1013.9
20260507070010 7 253 0.0 0.0 0.00 0.00 0.00 89 1014.2
20260507065503 7 247 0.0 0.0 0.00 0.00 0.00 89 1013.8
20260507065000 7 254 1.6 1.6 0.00 0.00 0.00 89 1014.1
20260507064458 7 256 0.0 0.0 0.00 0.00 0.00 91 1014.1
20260507063956 7 253 0.0 0.0 0.00 0.00 0.00 91 1013.7
20260507063453 7 253 0.0 1.6 0.00 0.00 0.00 91 1013.7
20260507062950 7 269 1.6 1.6 0.00 0.00 0.00 90 1014.1
20260507062447 7 286 4.8 4.8 0.00 0.00 0.00 90 1013.6
20260507061944 7 258 1.6 3.2 0.00 0.00 0.00 91 1013.6
20260507061442 7 259 1.6 3.2 0.00 0.00 0.00 91 1013.9
20260507060940 7 265 3.2 3.2 0.00 0.00 0.00 91 1014.1
20260507060437 7 270 1.6 3.2 0.00 0.00 0.00 91 1014.2
20260507055933 7 275 1.6 1.6 0.00 0.00 0.00 92 1013.9
20260507055429 7 305 4.8 4.8 0.00 0.00 0.00 92 1014.3
20260507054926 7 251 0.0 1.6 0.00 0.00 0.00 93 1014.3
20260507054422 7 255 1.6 3.2 0.00 0.00 0.00 93 1014.3
20260507053919 7 269 3.2 3.2 0.00 0.00 0.00 93 1014.5
20260507053417 7 270 4.8 4.8 0.00 0.00 0.00 93 1014.3
20260507052915 7 276 1.6 3.2 0.00 0.00 0.00 93 1014.6
20260507052412 7 242 0.0 0.0 0.00 0.00 0.00 94 1014.5
20260507051909 7 252 0.0 0.0 0.00 0.00 0.00 95 1014.5
20260507051407 7 251 0.0 0.0 0.00 0.00 0.00 96 1014.6
20260507050903 7 251 0.0 0.0 0.00 0.00 0.00 96 1014.2
20260507050400 7 264 1.6 1.6 0.00 0.00 0.00 97 1014.4
20260507045857 7 262 1.6 1.6 0.00 0.00 0.00 97 1014.3
20260507045353 8 249 4.8 4.8 0.00 0.00 0.00 98 1014.1
20260507044851 8 267 1.6 3.2 0.00 0.00 0.00 99 1014.4
20260507044347 8 281 4.8 8.0 0.00 0.00 0.00 98 1014.4
20260507043843 8 295 3.2 4.8 0.00 0.00 0.00 98 1014.2
20260507043340 8 286 3.2 3.2 0.00 0.00 0.00 98 1014.2
20260507042836 8 255 0.0 1.6 0.00 0.00 0.00 98 1014.3
20260507042332 8 260 1.6 3.2 0.00 0.00 0.00 98 1014.1
20260507041829 8 258 0.0 1.6 0.00 0.00 0.00 98 1014.3
20260507041325 8 256 1.6 1.6 0.00 0.00 0.00 98 1014.1
20260507040823 8 256 1.6 3.2 0.00 0.00 0.00 99 1014.3
20260507040319 8 330 4.8 4.8 0.00 0.00 0.00 99 1014.3
20260507035815 8 259 4.8 4.8 0.00 0.33 0.33 99 1014.1
20260507035310 8 268 4.8 4.8 0.00 0.33 0.33 99 1014.2
20260507034808 8 287 3.2 3.2 0.00 0.33 0.33 99 1014.3
20260507034305 8 261 3.2 3.2 0.00 0.33 0.33 99 1014.4
20260507033803 8 266 1.6 1.6 0.00 0.33 0.33 99 1014.5
20260507033301 8 257 0.0 0.0 0.00 0.33 0.33 99 1014.4
20260507032757 8 257 0.0 0.0 0.00 0.33 0.33 99 1014.6
20260507032253 8 256 1.6 1.6 0.00 0.33 0.33 99 1014.5
20260507031750 8 251 0.0 0.0 0.00 0.33 0.33 98 1014.4
20260507031247 8 244 0.0 0.0 0.00 0.33 0.33 98 1014.4
20260507030744 8 254 0.0 0.0 0.00 0.33 0.33 98 1014.2
20260507030241 8 253 0.0 0.0 0.00 0.33 0.33 97 1014.4
20260507025738 8 256 1.6 1.6 0.00 0.33 0.33 97 1014.2
20260507025235 8 254 0.0 0.0 0.00 0.33 0.33 97 1014.1
20260507024733 8 263 0.0 1.6 0.00 0.33 0.33 97 1013.8
20260507024231 8 259 1.6 1.6 0.00 0.33 0.33 97 1014.1
20260507023726 8 262 0.0 0.0 0.00 0.33 0.33 97 1013.9
20260507023223 8 261 1.6 3.2 0.00 0.33 0.33 97 1014.3
20260507022720 8 256 0.0 0.0 0.00 0.33 0.33 97 1014.1
20260507022216 8 252 0.0 0.0 0.00 0.33 0.33 97 1013.7
20260507021712 8 258 1.6 1.6 0.00 0.33 0.33 97 1013.8
20260507021208 8 253 0.0 0.0 0.00 0.33 0.33 98 1014.1
20260507020707 8 254 0.0 0.0 0.00 0.33 0.33 98 1013.8
20260507020202 8 254 0.0 0.0 0.00 0.33 0.33 98 1013.8
20260507015701 8 237 0.0 0.0 0.00 0.33 0.33 98 1013.6
20260507015158 8 246 0.0 0.0 0.00 0.33 0.33 98 1013.9
20260507014654 8 256 1.6 1.6 0.00 0.33 0.33 99 1013.8
20260507014150 8 253 0.0 0.0 0.00 0.33 0.33 99 1013.8
20260507013647 8 258 1.6 1.6 0.00 0.33 0.33 99 1013.7
20260507013144 8 269 1.6 3.2 0.00 0.33 0.33 99 1013.3
20260507012642 8 255 1.6 3.2 0.00 0.33 0.33 99 1013.5
20260507012137 8 255 1.6 1.6 0.00 0.33 0.33 99 1013.6
20260507011635 8 276 3.2 3.2 0.00 0.33 0.33 99 1013.5
20260507011131 8 255 0.0 1.6 0.00 0.33 0.33 99 1013.4
20260507010626 8 253 0.0 0.0 0.00 0.33 0.33 99 1013.9
20260507010122 8 253 0.0 0.0 0.00 0.33 0.33 99 1013.3
20260507005620 8 251 0.0 0.0 0.00 0.33 0.33 99 1013.7
20260507005116 8 256 0.0 1.6 0.00 0.33 0.33 99 1013.9
20260507004613 8 260 0.0 0.0 0.00 0.33 0.33 99 1014.1
20260507004110 8 255 1.6 3.2 0.00 0.33 0.33 99 1013.7
20260507003606 8 279 8.0 8.0 0.00 0.33 0.33 99 1013.7
20260507003101 8 15 8.0 8.0 0.00 0.33 0.33 98 1013.8
20260507002558 8 255 6.4 9.7 0.00 0.33 0.33 97 1013.6
20260507002054 9 322 11.3 12.9 0.00 0.33 0.33 96 1014.4
20260507001551 9 335 12.9 16.1 0.00 0.33 0.33 96 1014.1
20260507001048 9 10 12.9 14.5 0.00 0.33 0.33 97 1014.1
20260507000544 9 301 8.0 11.3 0.00 0.33 0.33 97 1013.8
20260507000040 9 331 11.3 12.9 0.00 0.33 0.33 97 1013.6
20260506235538 10 349 11.3 12.9 0.00 0.33 0.33 97 1013.7
20260506235033 10 8 8.0 11.3 0.00 0.33 0.33 97 1013.4
20260506234531 10 267 6.4 9.7 0.00 0.33 0.33 97 1013.5
20260506234028 10 304 9.7 11.3 0.00 0.33 0.33 98 1013.1
20260506233525 10 317 11.3 14.5 0.00 0.33 0.33 98 1013.2
20260506233022 10 281 4.8 4.8 0.00 0.33 0.33 98 1013.5
20260506232517 10 291 4.8 4.8 0.00 0.33 0.33 98 1013.5
20260506232013 10 266 4.8 4.8 0.00 0.33 0.33 98 1013.3
20260506231511 10 320 9.7 11.3 0.00 0.33 0.33 99 1013.2
20260506231009 10 270 6.4 11.3 0.00 0.33 0.33 99 1013.1
20260506230504 10 242 3.2 3.2 0.00 0.33 0.33 99 1012.9
20260506230003 10 286 8.0 9.7 0.00 0.33 0.33 99 1012.7
20260506225459 10 306 4.8 4.8 0.00 0.33 0.33 99 1012.8
20260506224955 10 270 6.4 8.0 0.00 0.33 0.33 99 1012.5
20260506224452 10 353 8.0 9.7 0.00 0.33 0.33 99 1012.6
20260506223949 10 284 8.0 9.7 0.00 0.33 0.33 99 1012.7
20260506223445 10 292 6.4 8.0 0.00 0.33 0.33 99 1012.8
20260506222942 10 288 6.4 9.7 0.00 0.33 0.33 98 1012.8
20260506222439 10 266 4.8 4.8 0.00 0.33 0.33 98 1012.6
20260506221935 10 318 6.4 8.0 0.00 0.33 0.33 98 1012.6
20260506221432 10 266 3.2 3.2 0.00 0.33 0.33 98 1012.7
20260506220930 10 262 3.2 3.2 0.00 0.33 0.33 98 1012.7
20260506220425 10 341 6.4 8.0 0.00 0.33 0.33 98 1012.7
20260506215922 10 242 3.2 4.8 0.00 0.33 0.33 98 1012.7
20260506215418 10 292 8.0 12.9 0.00 0.33 0.33 98 1012.7
20260506214914 10 285 6.4 8.0 0.00 0.33 0.33 98 1012.3
20260506214411 10 333 9.7 11.3 0.00 0.33 0.33 98 1012.6
20260506213909 10 273 6.4 8.0 0.00 0.33 0.33 99 1012.3
20260506213406 10 335 8.0 9.7 0.00 0.33 0.33 99 1012.3
20260506212904 10 262 8.0 9.7 0.00 0.33 0.33 99 1011.9
20260506212359 10 313 8.0 11.3 0.00 0.33 0.33 99 1012.0